Waupaca, WI

1:44 PM CST on November 21, 2017 (GMT -0600)
Waupaca Municipal

Weather History for KPCZ - April, 2014

Change the Weather History Date:

Wednesday, April 9, 2014

  Actual Average Record
Temperature  
Mean Temperature 46 °F -  
Max Temperature 64 °F 51 °F 78 °F (1955)
Min Temperature 28 °F 31 °F 19 °F (2016)
Degree Days  
Heating Degree Days 19    
Moisture  
Dew Point 25 °F    
Average Humidity 48    
Maximum Humidity 86    
Minimum Humidity 19    
Precipitation  
Precipitation 0.00 in - - ()
Sea Level Pressure  
Sea Level Pressure 29.84 in    
Wind  
Wind Speed 5 mph (SSW)    
Max Wind Speed 22 mph    
Max Gust Speed 29 mph    
Visibility 10 miles    
Events      
Averages and records for this station are not official NWS values.
T = Trace of Precipitation, MM = Missing Value Source: NWS Daily Summary

Daily Weather History Graph

Daily Weather History Graph

Search for Another Location

Airport or City:

Trip Planner

Search our weather history database for the weather conditions in past years. The results will help you decide how hot, cold, wet, or windy it might be!

Date:

Astronomy

Apr. 09, 2014 Rise Set
Actual Time 6:22 AM CDT 7:33 PM CDT
Civil Twilight 5:53 AM CDT 8:03 PM CDT
Nautical Twilight 5:17 AM CDT 8:38 PM CDT
Astronomical Twilight 4:39 AM CDT 9:16 PM CDT
Moon 2:10 PM CDT (4/9) 3:23 AM CDT (4/9)
Length of Visible Light 14h 10m
Length of Day
13h 10m
Waxing Gibbous, 72% of the Moon is Illuminated
Apr 9
Waxing Gibbous
Apr 15
Full
Apr 22
Last Quarter
Apr 29
New
May 6
First Quarter

Hourly Weather History & Observations

Time (CDT) Temp. Windchill Dew Point Humidity Pressure Visibility Wind Dir Wind Speed Gust Speed Precip Events Conditions
12:18 AM 33.8 °F 30.8 °F 26.6 °F 75% 29.95 in 10.0 mi West 3.5 mph - N/A   Clear
12:38 AM 35.6 °F - 26.6 °F 70% 29.96 in 10.0 mi Calm Calm - N/A   Clear
12:57 AM 33.8 °F - 26.6 °F 75% 29.96 in 10.0 mi Calm Calm - N/A   Clear
1:18 AM 33.8 °F - 26.6 °F 75% 29.96 in 10.0 mi Calm Calm - N/A   Clear
1:58 AM 33.8 °F - 26.6 °F 75% 29.95 in 10.0 mi Calm Calm - N/A   Clear
2:18 AM 33.8 °F - 28.4 °F 81% 29.95 in 10.0 mi Calm Calm - N/A   Clear
2:38 AM 32.0 °F - 26.6 °F 80% 29.95 in 10.0 mi Calm Calm - N/A   Clear
2:57 AM 32.0 °F - 26.6 °F 80% 29.94 in 10.0 mi Calm Calm - N/A   Clear
3:18 AM 30.2 °F - 24.8 °F 80% 29.94 in 10.0 mi Calm Calm - N/A   Clear
3:38 AM 30.2 °F - 26.6 °F 86% 29.94 in 10.0 mi Calm Calm - N/A   Clear
3:57 AM 30.2 °F - 24.8 °F 80% 29.93 in 10.0 mi Calm Calm - N/A   Clear
4:18 AM 30.2 °F - 24.8 °F 80% 29.94 in 10.0 mi Calm Calm - N/A   Clear
4:38 AM 30.2 °F - 24.8 °F 80% 29.94 in 10.0 mi Calm Calm - N/A   Clear
4:57 AM 28.4 °F - 24.8 °F 86% 29.94 in 10.0 mi Calm Calm - N/A   Clear
5:18 AM 28.4 °F - 24.8 °F 86% 29.95 in 10.0 mi Calm Calm - N/A   Clear
5:38 AM 28.4 °F - 24.8 °F 86% 29.96 in 10.0 mi Calm Calm - N/A   Clear
5:58 AM 28.4 °F - 24.8 °F 86% 29.96 in 10.0 mi Calm Calm - N/A   Clear
6:18 AM 28.4 °F - 24.8 °F 86% 29.96 in 10.0 mi Calm Calm - N/A   Clear
6:38 AM 28.4 °F - 24.8 °F 86% 29.96 in 10.0 mi Calm Calm - N/A   Clear
6:57 AM 28.4 °F - 24.8 °F 86% 29.97 in 10.0 mi Calm Calm - N/A   Clear
7:18 AM 30.2 °F - 26.6 °F 86% 29.97 in 10.0 mi Calm Calm - N/A   Clear
7:37 AM 33.8 °F - 28.4 °F 81% 29.97 in 10.0 mi Calm Calm - N/A   Clear
7:58 AM 35.6 °F - 28.4 °F 75% 29.97 in 10.0 mi Calm Calm - N/A   Clear
8:17 AM 37.4 °F 34.9 °F 30.2 °F 75% 29.96 in 10.0 mi SW 3.5 mph - N/A   Clear
8:38 AM 39.2 °F 37.0 °F 30.2 °F 70% 29.97 in 10.0 mi WSW 3.5 mph - N/A   Clear
9:00 AM 42.8 °F 41.1 °F 28.4 °F 57% 29.96 in 10.0 mi SW 3.5 mph - N/A   Clear
9:18 AM 44.6 °F 42.2 °F 28.4 °F 53% 29.96 in 10.0 mi SW 4.6 mph - N/A   Clear
9:37 AM 46.4 °F 45.2 °F 28.4 °F 50% 29.96 in 10.0 mi SSW 3.5 mph - N/A   Clear
9:58 AM 50.0 °F - 26.6 °F 40% 29.96 in 10.0 mi SSW 6.9 mph - N/A   Clear
10:37 AM 51.8 °F - 23.0 °F 33% 29.95 in 10.0 mi SW 13.8 mph 17.3 mph N/A   Clear
11:18 AM 53.6 °F - 21.2 °F 28% 29.94 in 10.0 mi SSW 10.4 mph - N/A   Clear
11:38 AM 55.4 °F - 19.4 °F 25% 29.93 in 10.0 mi West 13.8 mph - N/A   Clear
11:58 AM 55.4 °F - 19.4 °F 25% 29.92 in 10.0 mi SW 15.0 mph 18.4 mph N/A   Clear
12:18 PM 57.2 °F - 19.4 °F 23% 29.90 in 10.0 mi WSW 11.5 mph 18.4 mph N/A   Scattered Clouds
12:38 PM 57.2 °F - 19.4 °F 23% 29.89 in 10.0 mi South 9.2 mph - N/A   Scattered Clouds
1:17 PM 57.2 °F - 19.4 °F 23% 29.88 in 10.0 mi SSW 11.5 mph 17.3 mph N/A   Overcast
1:39 PM 59.0 °F - 19.4 °F 22% 29.86 in 10.0 mi South 10.4 mph 17.3 mph N/A   Mostly Cloudy
1:58 PM 60.8 °F - 19.4 °F 20% 29.85 in 10.0 mi SW 11.5 mph - N/A   Mostly Cloudy
2:18 PM 62.6 °F - 19.4 °F 19% 29.83 in 10.0 mi South 9.2 mph - N/A   Scattered Clouds
2:39 PM 60.8 °F - 19.4 °F 20% 29.81 in 10.0 mi South 11.5 mph - N/A   Scattered Clouds
2:58 PM 62.6 °F - 19.4 °F 19% 29.80 in 10.0 mi South 17.3 mph - N/A   Clear
3:18 PM 62.6 °F - 21.2 °F 20% 29.78 in 10.0 mi SSW 18.4 mph - N/A   Clear
3:38 PM 60.8 °F - 21.2 °F 22% 29.78 in 10.0 mi South 13.8 mph - N/A   Mostly Cloudy
3:58 PM 62.6 °F - 21.2 °F 20% 29.76 in 10.0 mi SSW 15.0 mph 21.9 mph N/A   Overcast
4:18 PM 62.6 °F - 21.2 °F 20% 29.75 in 10.0 mi South 11.5 mph 19.6 mph N/A   Mostly Cloudy
4:38 PM 64.4 °F - 21.2 °F 19% 29.75 in 10.0 mi South 16.1 mph 20.7 mph N/A   Mostly Cloudy
4:58 PM 62.6 °F - 23.0 °F 22% 29.73 in 10.0 mi SSW 17.3 mph 24.2 mph N/A   Scattered Clouds
5:18 PM 62.6 °F - 24.8 °F 24% 29.73 in 10.0 mi South 16.1 mph - N/A   Scattered Clouds
5:38 PM 62.6 °F - 23.0 °F 22% 29.73 in 10.0 mi South 16.1 mph 23.0 mph N/A   Scattered Clouds
5:58 PM 64.4 °F - 24.8 °F 22% 29.73 in 10.0 mi SSW 16.1 mph 23.0 mph N/A   Clear
6:18 PM 62.6 °F - 24.8 °F 24% 29.73 in 10.0 mi SSW 8.1 mph - N/A   Clear
6:38 PM 62.6 °F - 26.6 °F 26% 29.72 in 10.0 mi SSW 21.9 mph 28.8 mph N/A   Clear
6:58 PM 60.8 °F - 26.6 °F 27% 29.72 in 10.0 mi SSW 13.8 mph 23.0 mph N/A   Clear
7:18 PM 60.8 °F - 26.6 °F 27% 29.71 in 10.0 mi SSW 12.7 mph - N/A   Clear
7:38 PM 57.2 °F - 26.6 °F 31% 29.71 in 10.0 mi SSW 10.4 mph - N/A   Clear
7:58 PM 57.2 °F - 28.4 °F 33% 29.70 in 10.0 mi South 9.2 mph - N/A   Clear
8:18 PM 55.4 °F - 28.4 °F 36% 29.70 in 10.0 mi South 6.9 mph - N/A   Clear
8:38 PM 55.4 °F - 28.4 °F 36% 29.69 in 10.0 mi South 9.2 mph - N/A   Clear
8:58 PM 55.4 °F - 28.4 °F 36% 29.68 in 10.0 mi South 8.1 mph - N/A   Clear
9:19 PM 55.4 °F - 28.4 °F 36% 29.68 in 10.0 mi South 8.1 mph - N/A   Clear
9:38 PM 55.4 °F - 30.2 °F 38% 29.67 in 10.0 mi South 8.1 mph - N/A   Clear
9:58 PM 53.6 °F - 30.2 °F 41% 29.66 in 10.0 mi South 10.4 mph - N/A   Clear
10:18 PM 53.6 °F - 30.2 °F 41% 29.65 in 10.0 mi South 13.8 mph - N/A   Clear
10:40 PM 55.4 °F - 28.4 °F 36% 29.64 in 10.0 mi SSW 13.8 mph 19.6 mph N/A   Clear
10:58 PM 55.4 °F - 28.4 °F 36% 29.63 in 10.0 mi SSW 13.8 mph 19.6 mph N/A   Clear
11:18 PM 55.4 °F - 28.4 °F 36% 29.62 in 10.0 mi SSW 18.4 mph 24.2 mph N/A   Clear
11:38 PM 55.4 °F - 28.4 °F 36% 29.61 in 10.0 mi SSW 17.3 mph 21.9 mph N/A   Clear
11:58 PM 55.4 °F - 28.4 °F 36% 29.60 in 10.0 mi SSW 16.1 mph 19.6 mph N/A   Clear